TimeCDT,TemperatureF,Dew PointF,Humidity,Sea Level PressureIn,VisibilityMPH,Wind Direction,Wind SpeedMPH,Gust SpeedMPH,PrecipitationIn,Events,Conditions,WindDirDegrees,DateUTC
12:15 AM,82.4,51.8,35,29.90,10.0,SSW,10.4,-,N/A,,Scattered Clouds,200,2013-08-03 05:15:00
12:35 AM,84.2,50.0,30,29.90,10.0,SSW,12.7,-,N/A,,Clear,200,2013-08-03 05:35:00
12:55 AM,84.2,50.0,30,29.91,10.0,SSW,13.8,-,N/A,,Clear,200,2013-08-03 05:55:00
1:15 AM,84.2,50.0,30,29.91,10.0,SSW,11.5,-,N/A,,Scattered Clouds,210,2013-08-03 06:15:00
1:35 AM,84.2,50.0,30,29.92,10.0,SW,11.5,-,N/A,,Mostly Cloudy,230,2013-08-03 06:35:00
1:55 AM,82.4,51.8,35,29.92,10.0,SW,9.2,-,N/A,,Scattered Clouds,230,2013-08-03 06:55:00
2:15 AM,78.8,53.6,42,29.93,10.0,WSW,6.9,-,N/A,,Clear,240,2013-08-03 07:15:00
2:35 AM,78.8,53.6,42,29.94,10.0,West,3.5,-,N/A,,Scattered Clouds,260,2013-08-03 07:35:00
2:55 AM,78.8,53.6,42,29.95,10.0,Calm,Calm,-,N/A,,Scattered Clouds,0,2013-08-03 07:55:00
3:15 AM,77.0,55.4,47,29.95,10.0,Calm,Calm,-,N/A,,Scattered Clouds,0,2013-08-03 08:15:00
3:35 AM,78.8,55.4,44,29.95,10.0,WSW,5.8,-,N/A,,Clear,250,2013-08-03 08:35:00
3:55 AM,77.0,55.4,47,29.95,10.0,WSW,4.6,-,N/A,,Clear,240,2013-08-03 08:55:00
4:15 AM,77.0,57.2,50,29.95,10.0,SSW,5.8,-,N/A,,Clear,200,2013-08-03 09:15:00
4:35 AM,75.2,59.0,57,29.94,10.0,SSW,6.9,-,N/A,,Clear,210,2013-08-03 09:35:00
4:55 AM,73.4,59.0,61,29.94,10.0,SSW,6.9,-,N/A,,Clear,210,2013-08-03 09:55:00
5:15 AM,73.4,59.0,61,29.93,10.0,South,9.2,-,N/A,,Clear,180,2013-08-03 10:15:00
5:35 AM,71.6,59.0,64,29.94,10.0,South,5.8,-,N/A,,Clear,170,2013-08-03 10:35:00
5:55 AM,71.6,59.0,64,29.94,10.0,South,4.6,-,N/A,,Clear,190,2013-08-03 10:55:00
6:15 AM,71.6,59.0,64,29.94,10.0,SSE,9.2,-,N/A,,Clear,150,2013-08-03 11:15:00
6:35 AM,71.6,59.0,64,29.94,10.0,South,8.1,-,N/A,,Clear,170,2013-08-03 11:35:00
6:55 AM,69.8,59.0,68,29.94,10.0,South,4.6,-,N/A,,Clear,190,2013-08-03 11:55:00
7:15 AM,69.8,59.0,68,29.94,10.0,SSW,8.1,-,N/A,,Clear,210,2013-08-03 12:15:00
7:35 AM,73.4,57.2,57,29.96,10.0,SW,8.1,-,N/A,,Clear,230,2013-08-03 12:35:00
7:55 AM,75.2,59.0,57,29.96,10.0,West,5.8,-,N/A,,Clear,260,2013-08-03 12:55:00
8:15 AM,73.4,59.0,61,29.97,10.0,West,4.6,-,N/A,,Clear,270,2013-08-03 13:15:00
8:35 AM,75.2,59.0,57,29.97,10.0,WSW,4.6,-,N/A,,Clear,250,2013-08-03 13:35:00
8:55 AM,73.4,60.8,65,29.98,10.0,WSW,5.8,-,N/A,,Clear,240,2013-08-03 13:55:00
9:15 AM,77.0,59.0,54,29.98,10.0,WNW,4.6,-,N/A,,Clear,300,2013-08-03 14:15:00
9:35 AM,77.0,62.6,61,29.99,10.0,WNW,5.8,-,N/A,,Clear,300,2013-08-03 14:35:00
9:55 AM,78.8,64.4,61,29.99,10.0,North,5.8,-,N/A,,Clear,360,2013-08-03 14:55:00
10:15 AM,80.6,64.4,58,29.99,10.0,NNW,5.8,-,N/A,,Clear,340,2013-08-03 15:15:00
10:35 AM,82.4,68.0,62,30.00,10.0,North,5.8,-,N/A,,Clear,350,2013-08-03 15:35:00
10:55 AM,80.6,68.0,65,30.01,10.0,NW,5.8,-,N/A,,Clear,320,2013-08-03 15:55:00
11:15 AM,80.6,68.0,65,30.01,10.0,NW,3.5,-,N/A,,Clear,310,2013-08-03 16:15:00
11:35 AM,82.4,68.0,62,30.01,10.0,NW,6.9,-,N/A,,Clear,320,2013-08-03 16:35:00
11:55 AM,82.4,68.0,62,30.02,10.0,NW,8.1,-,N/A,,Clear,310,2013-08-03 16:55:00
12:15 PM,82.4,68.0,62,30.02,10.0,WNW,4.6,-,N/A,,Clear,300,2013-08-03 17:15:00
12:35 PM,86.0,68.0,55,30.02,10.0,NW,8.1,-,N/A,,Clear,320,2013-08-03 17:35:00
12:55 PM,84.2,68.0,58,30.02,10.0,NNW,6.9,-,N/A,,Clear,330,2013-08-03 17:55:00
1:15 PM,86.0,68.0,55,30.02,10.0,Calm,Calm,-,N/A,,Clear,0,2013-08-03 18:15:00
1:35 PM,87.8,68.0,52,30.01,10.0,Calm,Calm,-,N/A,,Clear,0,2013-08-03 18:35:00
1:55 PM,87.8,66.2,49,30.01,10.0,Calm,Calm,-,N/A,,Clear,0,2013-08-03 18:55:00
2:15 PM,89.6,66.2,46,30.01,10.0,Calm,Calm,-,N/A,,Clear,0,2013-08-03 19:15:00
2:35 PM,89.6,64.4,43,30.01,10.0,WSW,5.8,-,N/A,,Clear,250,2013-08-03 19:35:00
2:55 PM,89.6,62.6,40,30.01,10.0,North,-9999.0,-,N/A,,Clear,0,2013-08-03 19:55:00
3:15 PM,89.6,64.4,43,30.01,10.0,North,-9999.0,-,N/A,,Clear,0,2013-08-03 20:15:00
3:35 PM,91.4,64.4,41,30.00,10.0,North,-9999.0,-,N/A,,Clear,0,2013-08-03 20:35:00
3:55 PM,91.4,62.6,38,29.99,10.0,North,-9999.0,-,N/A,,Clear,0,2013-08-03 20:55:00
4:15 PM,93.2,66.2,41,29.98,10.0,North,-9999.0,-,N/A,,Clear,0,2013-08-03 21:15:00
4:35 PM,91.4,64.4,41,29.98,10.0,North,-9999.0,-,N/A,,Clear,0,2013-08-03 21:35:00
4:55 PM,91.4,66.2,43,29.97,10.0,North,-9999.0,-,N/A,,Scattered Clouds,0,2013-08-03 21:55:00
5:15 PM,89.6,64.4,43,29.97,10.0,North,3.5,-,N/A,,Mostly Cloudy,350,2013-08-03 22:15:00
5:35 PM,89.6,64.4,43,29.96,10.0,North,-9999.0,-,N/A,,Mostly Cloudy,0,2013-08-03 22:35:00
5:55 PM,91.4,64.4,41,29.96,10.0,North,-9999.0,-,N/A,,Clear,0,2013-08-03 22:55:00
6:15 PM,89.6,64.4,43,29.96,10.0,North,-9999.0,-,N/A,,Clear,0,2013-08-03 23:15:00
6:35 PM,91.4,64.4,41,29.96,10.0,NE,4.6,-,N/A,,Clear,50,2013-08-03 23:35:00
6:55 PM,91.4,62.6,38,29.97,10.0,North,-9999.0,-,N/A,,Mostly Cloudy,0,2013-08-03 23:55:00
7:15 PM,87.8,57.2,35,29.99,10.0,SW,27.6,35.7,N/A,,Overcast,230,2013-08-04 00:15:00
7:35 PM,80.6,59.0,48,30.00,10.0,SW,18.4,36.8,N/A,Rain,Rain,230,2013-08-04 00:35:00
7:55 PM,73.4,64.4,73,30.00,7.0,East,15.0,31.1,N/A,Rain,Rain,80,2013-08-04 00:55:00
8:15 PM,73.4,64.4,73,30.02,10.0,East,11.5,-,N/A,,Scattered Clouds,90,2013-08-04 01:15:00
8:35 PM,73.4,64.4,73,30.01,10.0,NNE,10.4,-,N/A,Rain,Light Rain,30,2013-08-04 01:35:00
8:55 PM,71.6,64.4,78,30.03,10.0,North,13.8,-,N/A,Rain,Light Rain,350,2013-08-04 01:55:00
9:15 PM,73.4,68.0,83,30.02,10.0,East,8.1,-,N/A,Rain,Light Rain,80,2013-08-04 02:15:00
9:35 PM,75.2,64.4,69,30.04,10.0,North,3.5,-,N/A,,Clear,10,2013-08-04 02:35:00
9:55 PM,75.2,66.2,73,30.07,10.0,Calm,Calm,-,N/A,,Mostly Cloudy,0,2013-08-04 02:55:00
10:15 PM,77.0,66.2,69,30.06,10.0,ENE,6.9,-,N/A,,Mostly Cloudy,60,2013-08-04 03:15:00
10:35 PM,77.0,64.4,65,30.06,10.0,East,9.2,-,N/A,,Scattered Clouds,100,2013-08-04 03:35:00
10:55 PM,77.0,64.4,65,30.06,10.0,ESE,12.7,18.4,N/A,,Clear,110,2013-08-04 03:55:00
11:15 PM,78.8,64.4,61,30.05,10.0,ESE,10.4,-,N/A,,Scattered Clouds,120,2013-08-04 04:15:00
11:35 PM,78.8,62.6,57,30.05,10.0,ESE,9.2,-,N/A,,Clear,110,2013-08-04 04:35:00
11:55 PM,78.8,62.6,57,30.04,10.0,SE,3.5,-,N/A,,Clear,130,2013-08-04 04:55:00